| time (UTC) | temp F | wind direction | speed MPH | gust MPH | rain 1hr in | rain 24hr in | rain mn in | humidity % | barometer mb |
| 20260506073109 | 0 | 0 | 0.0 | 0.0 | 0.00 | 0.02 | 0.00 | 67 | 1018.9 |
| 20260506072547 | 0 | 0 | 0.0 | 0.0 | 0.00 | 0.02 | 0.00 | 67 | 1019.1 |
| 20260506072023 | 0 | 0 | 0.0 | 0.0 | 0.00 | 0.02 | 0.00 | 67 | 1018.8 |
| 20260506071500 | 0 | 0 | 0.0 | 0.0 | 0.00 | 0.02 | 0.00 | 67 | 1018.7 |
| 20260506070939 | 0 | 0 | 0.0 | 0.0 | 0.00 | 0.02 | 0.00 | 67 | 1018.7 |
| 20260506070415 | 0 | 0 | 0.0 | 0.0 | 0.00 | 0.02 | 0.00 | 67 | 1018.7 |
| 20260506062204 | 0 | 0 | 0.0 | 0.0 | 0.00 | 0.03 | 0.00 | 69 | 1018.4 |
| 20260506062110 | 0 | 0 | 0.0 | 0.0 | 0.00 | 0.03 | 0.00 | 69 | 1018.4 |
| 20260506061548 | 0 | 0 | 0.0 | 0.0 | 0.00 | 0.03 | 0.00 | 68 | 1018.6 |
| 20260506061024 | 0 | 0 | 0.0 | 0.0 | 0.00 | 0.03 | 0.00 | 68 | 1018.6 |
| 20260506060501 | 0 | 0 | 0.0 | 0.0 | 0.00 | 0.03 | 0.00 | 68 | 1018.6 |
| 20260506051112 | 0 | 0 | 0.0 | 0.0 | 0.00 | 0.04 | 0.00 | 67 | 1018.5 |
| 20260506050548 | 0 | 0 | 0.0 | 0.0 | 0.00 | 0.04 | 0.00 | 67 | 1018.5 |
| 20260506044939 | 0 | 0 | 0.0 | 0.0 | 0.00 | 0.04 | 0.00 | 68 | 1018.3 |
| 20260506044416 | 0 | 0 | 0.0 | 0.0 | 0.00 | 0.04 | 0.00 | 68 | 1018.4 |
| 20260506043853 | 0 | 0 | 0.0 | 0.0 | 0.00 | 0.04 | 0.00 | 67 | 1018.3 |
| 20260506043330 | 0 | 0 | 0.0 | 0.0 | 0.00 | 0.04 | 0.00 | 68 | 1018.1 |
| 20260506042807 | 0 | 0 | 0.0 | 0.0 | 0.00 | 0.04 | 0.00 | 68 | 1018.0 |
| 20260506042244 | 0 | 0 | 0.0 | 1.0 | 0.00 | 0.04 | 0.00 | 69 | 1018.0 |
| 20260506041721 | 0 | 233 | 0.0 | 1.0 | 0.00 | 0.04 | 0.00 | 69 | 1017.9 |
| 20260506041158 | 0 | 0 | 0.0 | 0.0 | 0.00 | 0.04 | 0.00 | 66 | 1017.5 |
| 20260506040635 | 0 | 67 | 0.0 | 0.0 | 0.00 | 0.04 | 0.00 | 66 | 1017.8 |
| 20260506040112 | 0 | 0 | 0.0 | 0.0 | 0.00 | 0.04 | 0.00 | 69 | 1017.6 |
| 20260506035550 | 0 | 0 | 0.0 | 0.0 | 0.00 | 0.04 | 0.00 | 69 | 1017.6 |
| 20260506035026 | 0 | 0 | 0.0 | 0.0 | 0.00 | 0.04 | 0.00 | 66 | 1017.3 |
| 20260506034503 | 0 | 0 | 0.0 | 0.0 | 0.00 | 0.04 | 0.00 | 67 | 1017.4 |
| 20260506033941 | 0 | 0 | 0.0 | 0.0 | 0.00 | 0.04 | 0.00 | 68 | 1017.4 |
| 20260506033417 | 0 | 0 | 0.0 | 3.0 | 0.00 | 0.04 | 0.00 | 68 | 1017.5 |
| 20260506032856 | 0 | 0 | 0.0 | 3.0 | 0.00 | 0.04 | 0.00 | 60 | 1017.3 |
| 20260506032331 | 0 | 75 | 0.0 | 3.0 | 0.00 | 0.04 | 0.00 | 60 | 1017.0 |
| 20260506031808 | 0 | 117 | 0.0 | 4.0 | 0.00 | 0.04 | 0.00 | 58 | 1017.3 |
| 20260506031245 | 0 | 110 | 1.0 | 4.0 | 0.00 | 0.04 | 0.00 | 69 | 1017.3 |
| 20260506030722 | 0 | 98 | 0.0 | 4.0 | 0.00 | 0.04 | 0.00 | 69 | 1017.4 |
| 20260506030159 | 0 | 0 | 1.0 | 1.0 | 0.00 | 0.04 | 0.00 | 66 | 1017.0 |
| 20260506025636 | 0 | 0 | 0.0 | 1.0 | 0.00 | 0.04 | 0.00 | 70 | 1017.4 |
| 20260506025113 | 0 | 106 | 0.0 | 4.0 | 0.00 | 0.04 | 0.00 | 69 | 1017.3 |
| 20260506024550 | 0 | 0 | 0.0 | 4.0 | 0.00 | 0.04 | 0.00 | 67 | 1017.4 |
| 20260506024027 | 0 | 0 | 0.0 | 4.0 | 0.00 | 0.04 | 0.00 | 67 | 1016.9 |
| 20260506023504 | 0 | 145 | 0.0 | 4.0 | 0.00 | 0.04 | 0.00 | 68 | 1017.2 |
| 20260506022940 | 0 | 144 | 1.0 | 4.0 | 0.00 | 0.04 | 0.00 | 68 | 1017.3 |
| 20260506022418 | 0 | 147 | 2.0 | 4.0 | 0.00 | 0.04 | 0.00 | 67 | 1017.3 |
| 20260506021854 | 0 | 144 | 1.0 | 4.0 | 0.00 | 0.04 | 0.00 | 68 | 1017.2 |
| 20260506021331 | 0 | 0 | 0.0 | 4.0 | 0.00 | 0.04 | 0.00 | 66 | 1017.1 |
| 20260506020808 | 0 | 147 | 0.0 | 4.0 | 0.00 | 0.04 | 0.00 | 66 | 1017.2 |
| 20260506020245 | 0 | 145 | 2.0 | 4.0 | 0.00 | 0.04 | 0.00 | 65 | 1017.1 |
| 20260506015722 | 0 | 124 | 1.0 | 4.0 | 0.00 | 0.04 | 0.00 | 65 | 1017.1 |
| 20260506015159 | 0 | 106 | 0.0 | 5.0 | 0.00 | 0.04 | 0.00 | 65 | 1017.0 |
| 20260506014636 | 0 | 79 | 1.0 | 5.0 | 0.00 | 0.04 | 0.00 | 64 | 1017.0 |
| 20260506014114 | 0 | 99 | 2.0 | 5.0 | 0.00 | 0.04 | 0.00 | 65 | 1017.1 |
| 20260506013550 | 0 | 96 | 0.0 | 7.0 | 0.00 | 0.04 | 0.00 | 66 | 1017.2 |
| 20260506013028 | 0 | 144 | 1.0 | 7.0 | 0.00 | 0.04 | 0.00 | 64 | 1016.9 |
| 20260506012504 | 0 | 79 | 2.0 | 7.0 | 0.00 | 0.04 | 0.00 | 64 | 1017.1 |
| 20260506011941 | 0 | 88 | 2.0 | 5.0 | 0.00 | 0.04 | 0.00 | 64 | 1017.0 |
| 20260506011421 | 0 | 85 | 2.0 | 5.0 | 0.00 | 0.04 | 0.00 | 64 | 1017.1 |
| 20260506010855 | 0 | 112 | 0.0 | 4.0 | 0.00 | 0.04 | 0.00 | 64 | 1017.1 |
| 20260506010332 | 0 | 100 | 1.0 | 5.0 | 0.00 | 0.04 | 0.00 | 64 | 1016.9 |
| 20260506005809 | 0 | 79 | 0.0 | 5.0 | 0.00 | 0.04 | 0.00 | 64 | 1017.0 |
| 20260506005246 | 0 | 98 | 1.0 | 5.0 | 0.00 | 0.04 | 0.00 | 63 | 1017.0 |
| 20260506004723 | 0 | 140 | 3.0 | 5.0 | 0.00 | 0.04 | 0.00 | 63 | 1017.1 |
| 20260506004200 | 0 | 99 | 2.0 | 6.0 | 0.00 | 0.04 | 0.00 | 60 | 1017.0 |
| 20260506003638 | 0 | 92 | 2.0 | 6.0 | 0.00 | 0.04 | 0.00 | 59 | 1017.1 |
| 20260506003114 | 0 | 102 | 3.0 | 7.0 | 0.00 | 0.04 | 0.00 | 62 | 1017.1 |
| 20260506002552 | 0 | 103 | 0.0 | 7.0 | 0.00 | 0.04 | 0.00 | 62 | 1017.3 |
| 20260506002029 | 0 | 114 | 2.0 | 7.0 | 0.00 | 0.04 | 0.00 | 59 | 1017.1 |
| 20260506001505 | 0 | 123 | 3.0 | 6.0 | 0.00 | 0.04 | 0.00 | 60 | 1017.0 |
| 20260506000942 | 0 | 105 | 4.0 | 6.0 | 0.00 | 0.04 | 0.00 | 59 | 1017.0 |
| 20260506000419 | 0 | 114 | 1.0 | 6.0 | 0.00 | 0.04 | 0.00 | 60 | 1017.2 |
| 20260505235856 | 0 | 100 | 3.0 | 6.0 | 0.00 | 0.04 | 0.00 | 59 | 1017.0 |
| 20260505235333 | 0 | 95 | 0.0 | 5.0 | 0.00 | 0.04 | 0.00 | 60 | 1017.1 |
| 20260505234810 | 0 | 102 | 4.0 | 7.0 | 0.00 | 0.04 | 0.00 | 60 | 1017.0 |
| 20260505234247 | 0 | 121 | 1.0 | 7.0 | 0.00 | 0.04 | 0.04 | 60 | 1017.2 |
| 20260505233724 | 0 | 113 | 4.0 | 7.0 | 0.00 | 0.04 | 0.04 | 59 | 1017.3 |
| 20260505233201 | 0 | 113 | 2.0 | 7.0 | 0.00 | 0.04 | 0.04 | 59 | 1017.3 |
| 20260505232638 | 0 | 114 | 2.0 | 7.0 | 0.00 | 0.04 | 0.04 | 58 | 1017.3 |
| 20260505232116 | 0 | 110 | 3.0 | 5.0 | 0.00 | 0.04 | 0.04 | 58 | 1017.4 |
| 20260505231553 | 0 | 126 | 2.0 | 5.0 | 0.00 | 0.04 | 0.04 | 59 | 1017.6 |
| 20260505231029 | 0 | 84 | 2.0 | 6.0 | 0.00 | 0.04 | 0.04 | 59 | 1017.4 |
| 20260505230506 | 0 | 114 | 2.0 | 6.0 | 0.00 | 0.04 | 0.04 | 57 | 1017.4 |
| 20260505225943 | 0 | 112 | 4.0 | 6.0 | 0.00 | 0.04 | 0.04 | 58 | 1017.4 |
| 20260505225420 | 0 | 149 | 2.0 | 5.0 | 0.00 | 0.04 | 0.04 | 58 | 1017.6 |
| 20260505224857 | 0 | 134 | 2.0 | 5.0 | 0.00 | 0.04 | 0.04 | 58 | 1017.4 |
| 20260505224334 | 0 | 117 | 1.0 | 5.0 | 0.00 | 0.04 | 0.04 | 59 | 1017.4 |
| 20260505223811 | 0 | 148 | 2.0 | 5.0 | 0.00 | 0.04 | 0.04 | 59 | 1017.4 |
| 20260505223248 | 0 | 163 | 1.0 | 3.0 | 0.00 | 0.04 | 0.04 | 59 | 1017.8 |
| 20260505222725 | 0 | 130 | 1.0 | 4.0 | 0.00 | 0.04 | 0.04 | 59 | 1017.8 |
| 20260505222202 | 0 | 22 | 2.0 | 4.0 | 0.00 | 0.04 | 0.04 | 58 | 1017.6 |
| 20260505221639 | 0 | 86 | 1.0 | 4.0 | 0.00 | 0.04 | 0.04 | 57 | 1017.6 |
| 20260505221116 | 0 | 334 | 1.0 | 3.0 | 0.00 | 0.04 | 0.04 | 58 | 1017.8 |
| 20260505220553 | 0 | 152 | 0.0 | 3.0 | 0.00 | 0.04 | 0.04 | 58 | 1017.9 |
| 20260505220030 | 0 | 126 | 0.0 | 4.0 | 0.00 | 0.04 | 0.04 | 60 | 1017.8 |
| 20260505215507 | 0 | 137 | 0.0 | 4.0 | 0.00 | 0.04 | 0.04 | 61 | 1017.6 |
| 20260505214944 | 0 | 120 | 1.0 | 4.0 | 0.00 | 0.04 | 0.04 | 62 | 1017.6 |
| 20260505214421 | 0 | 131 | 0.0 | 4.0 | 0.00 | 0.04 | 0.04 | 63 | 1017.9 |
| 20260505213858 | 0 | 128 | 0.0 | 4.0 | 0.00 | 0.04 | 0.04 | 64 | 1017.9 |
| 20260505213335 | 0 | 18 | 0.0 | 4.0 | 0.00 | 0.04 | 0.04 | 63 | 1017.9 |
| 20260505212812 | 0 | 131 | 1.0 | 4.0 | 0.00 | 0.04 | 0.04 | 63 | 1017.9 |
| 20260505212249 | 0 | 147 | 2.0 | 2.0 | 0.00 | 0.04 | 0.04 | 58 | 1017.9 |
| 20260505211726 | 0 | 37 | 1.0 | 4.0 | 0.00 | 0.04 | 0.04 | 64 | 1018.0 |
| 20260505211203 | 0 | 26 | 0.0 | 4.0 | 0.00 | 0.04 | 0.04 | 65 | 1017.8 |
| 20260505210640 | 0 | 23 | 1.0 | 4.0 | 0.00 | 0.04 | 0.04 | 65 | 1017.9 |
| 20260505210117 | 0 | 21 | 0.0 | 4.0 | 0.00 | 0.04 | 0.04 | 66 | 1018.0 |
| 20260505205554 | 0 | 42 | 0.0 | 4.0 | 0.00 | 0.04 | 0.04 | 65 | 1018.1 |
| 20260505205031 | 0 | 0 | 1.0 | 4.0 | 0.00 | 0.04 | 0.04 | 65 | 1017.9 |
| 20260505204508 | 0 | 57 | 0.0 | 4.0 | 0.00 | 0.04 | 0.04 | 67 | 1018.0 |
| 20260505203945 | 0 | 49 | 0.0 | 4.0 | 0.00 | 0.04 | 0.04 | 65 | 1017.5 |
| 20260505203422 | 0 | 35 | 0.0 | 4.0 | 0.00 | 0.04 | 0.04 | 67 | 1017.9 |
| 20260505202859 | 0 | 0 | 0.0 | 3.0 | 0.00 | 0.04 | 0.04 | 66 | 1017.9 |
| 20260505202336 | 0 | 47 | 0.0 | 3.0 | 0.00 | 0.04 | 0.04 | 66 | 1017.8 |
| 20260505201813 | 0 | 0 | 0.0 | 0.0 | 0.00 | 0.04 | 0.04 | 69 | 1017.6 |
| 20260505201250 | 0 | 0 | 0.0 | 0.0 | 0.00 | 0.04 | 0.04 | 69 | 1018.1 |
| 20260505200727 | 0 | 350 | 0.0 | 4.0 | 0.00 | 0.04 | 0.04 | 66 | 1018.2 |
| 20260505200204 | 0 | 324 | 0.0 | 4.0 | 0.00 | 0.04 | 0.04 | 68 | 1018.1 |
| 20260505195641 | 0 | 0 | 0.0 | 0.0 | 0.00 | 0.04 | 0.04 | 69 | 1018.1 |
| 20260505195118 | 0 | 0 | 0.0 | 3.0 | 0.00 | 0.04 | 0.04 | 69 | 1018.2 |
| 20260505194555 | 0 | 22 | 0.0 | 3.0 | 0.00 | 0.04 | 0.04 | 69 | 1018.3 |
| 20260505194034 | 0 | 50 | 1.0 | 3.0 | 0.00 | 0.04 | 0.04 | 69 | 1018.1 |
| 20260505193509 | 0 | 124 | 0.0 | 2.0 | 0.00 | 0.04 | 0.04 | 69 | 1017.8 |
| 20260505192946 | 0 | 0 | 0.0 | 0.0 | 0.00 | 0.04 | 0.04 | 71 | 1018.2 |
| 20260505192423 | 0 | 0 | 0.0 | 0.0 | 0.00 | 0.04 | 0.04 | 72 | 1018.3 |
| 20260505191901 | 0 | 0 | 0.0 | 0.0 | 0.00 | 0.04 | 0.04 | 73 | 1017.9 |
| 20260505191337 | 0 | 0 | 0.0 | 0.0 | 0.00 | 0.04 | 0.04 | 69 | 1017.5 |
| 20260505190814 | 0 | 0 | 0.0 | 0.0 | 0.00 | 0.04 | 0.04 | 72 | 1017.8 |
| 20260505190251 | 0 | 0 | 0.0 | 0.0 | 0.00 | 0.04 | 0.04 | 74 | 1018.0 |
| 20260505185727 | 0 | 0 | 0.0 | 0.0 | 0.00 | 0.04 | 0.04 | 75 | 1017.4 |
| 20260505185205 | 0 | 0 | 0.0 | 0.0 | 0.00 | 0.04 | 0.04 | 76 | 1017.8 |
| 20260505184641 | 0 | 0 | 0.0 | 0.0 | 0.00 | 0.04 | 0.04 | 76 | 1017.6 |
| 20260505184119 | 0 | 0 | 0.0 | 0.0 | 0.00 | 0.04 | 0.04 | 75 | 1017.5 |
| 20260505183555 | 0 | 252 | 0.0 | 0.0 | 0.00 | 0.04 | 0.04 | 78 | 1017.8 |
| 20260505183033 | 0 | 0 | 0.0 | 2.0 | 0.00 | 0.04 | 0.04 | 76 | 1017.6 |
| 20260505182510 | 0 | 0 | 0.0 | 2.0 | 0.00 | 0.04 | 0.04 | 77 | 1017.2 |
| 20260505181947 | 0 | 82 | 0.0 | 2.0 | 0.00 | 0.04 | 0.04 | 79 | 1017.5 |
| 20260505181425 | 0 | 0 | 0.0 | 0.0 | 0.00 | 0.04 | 0.04 | 80 | 1017.5 |
| 20260505180900 | 0 | 0 | 0.0 | 0.0 | 0.00 | 0.04 | 0.04 | 78 | 1017.1 |
| 20260505180337 | 0 | 0 | 0.0 | 0.0 | 0.00 | 0.04 | 0.04 | 81 | 1017.2 |
| 20260505175814 | 0 | 0 | 0.0 | 0.0 | 0.00 | 0.04 | 0.04 | 81 | 1017.3 |
| 20260505175251 | 0 | 0 | 0.0 | 0.0 | 0.00 | 0.04 | 0.04 | 81 | 1017.1 |
| 20260505174729 | 0 | 0 | 0.0 | 0.0 | 0.00 | 0.04 | 0.04 | 82 | 1017.3 |
| 20260505174205 | 0 | 0 | 0.0 | 0.0 | 0.00 | 0.04 | 0.04 | 82 | 1017.1 |
| 20260505173644 | 0 | 0 | 0.0 | 0.0 | 0.00 | 0.04 | 0.04 | 82 | 1017.2 |
| 20260505173119 | 0 | 0 | 0.0 | 0.0 | 0.00 | 0.04 | 0.04 | 81 | 1016.8 |
| 20260505172556 | 0 | 0 | 0.0 | 2.0 | 0.00 | 0.04 | 0.04 | 81 | 1016.9 |
| 20260505172033 | 0 | 0 | 0.0 | 2.0 | 0.00 | 0.04 | 0.04 | 83 | 1016.6 |
| 20260505171511 | 0 | 47 | 0.0 | 2.0 | 0.00 | 0.04 | 0.04 | 84 | 1017.0 |
| 20260505170947 | 0 | 0 | 0.0 | 0.0 | 0.00 | 0.04 | 0.04 | 84 | 1017.0 |
| 20260505170425 | 0 | 0 | 0.0 | 0.0 | 0.00 | 0.04 | 0.04 | 83 | 1016.7 |
| 20260505165901 | 0 | 0 | 0.0 | 0.0 | 0.00 | 0.04 | 0.04 | 79 | 1016.5 |
| 20260505165338 | 0 | 0 | 0.0 | 0.0 | 0.00 | 0.04 | 0.04 | 79 | 1016.7 |
| 20260505164815 | 0 | 0 | 0.0 | 0.0 | 0.00 | 0.04 | 0.04 | 80 | 1016.8 |
| 20260505164252 | 0 | 0 | 0.0 | 0.0 | 0.00 | 0.05 | 0.04 | 80 | 1016.7 |
| 20260505163729 | 0 | 0 | 0.0 | 0.0 | 0.00 | 0.05 | 0.04 | 78 | 1016.8 |
| 20260505163206 | 0 | 0 | 0.0 | 0.0 | 0.00 | 0.05 | 0.04 | 77 | 1016.8 |
| 20260505162643 | 0 | 161 | 0.0 | 0.0 | 0.00 | 0.05 | 0.04 | 78 | 1016.8 |
| 20260505162120 | 0 | 0 | 0.0 | 0.0 | 0.00 | 0.05 | 0.04 | 77 | 1016.6 |
| 20260505161557 | 0 | 0 | 0.0 | 0.0 | 0.00 | 0.05 | 0.04 | 76 | 1016.7 |
| 20260505161034 | 0 | 0 | 0.0 | 0.0 | 0.00 | 0.05 | 0.04 | 77 | 1016.6 |
| 20260505160512 | 0 | 0 | 0.0 | 0.0 | 0.00 | 0.05 | 0.04 | 77 | 1016.7 |
| 20260505153254 | 0 | 0 | 0.0 | 0.0 | 0.00 | 0.05 | 0.04 | 82 | 1016.5 |
| 20260505152730 | 0 | 0 | 0.0 | 0.0 | 0.00 | 0.05 | 0.04 | 84 | 1016.6 |
| 20260505152208 | 0 | 0 | 0.0 | 0.0 | 0.00 | 0.05 | 0.04 | 85 | 1016.7 |
| 20260505151644 | 0 | 0 | 0.0 | 0.0 | 0.00 | 0.05 | 0.04 | 86 | 1016.8 |
| 20260505151121 | 0 | 0 | 0.0 | 2.0 | 0.00 | 0.05 | 0.04 | 84 | 1016.6 |
| 20260505150558 | 0 | 0 | 0.0 | 2.0 | 0.00 | 0.05 | 0.04 | 84 | 1016.4 |
| 20260505140646 | 0 | 0 | 0.0 | 0.0 | 0.00 | 0.06 | 0.04 | 84 | 1016.6 |
| 20260505140122 | 0 | 0 | 0.0 | 0.0 | 0.00 | 0.06 | 0.04 | 82 | 1016.4 |
| 20260505130210 | 0 | 0 | 0.0 | 0.0 | 0.01 | 0.05 | 0.04 | 83 | 1016.1 |
| 20260505124600 | 0 | 0 | 0.0 | 0.0 | 0.00 | 0.05 | 0.03 | 83 | 1016.1 |
| 20260505124037 | 0 | 0 | 0.0 | 0.0 | 0.00 | 0.05 | 0.03 | 83 | 1016.0 |
| 20260505123514 | 0 | 0 | 0.0 | 0.0 | 0.00 | 0.05 | 0.03 | 83 | 1016.0 |
| 20260505122951 | 0 | 0 | 0.0 | 0.0 | 0.00 | 0.05 | 0.03 | 83 | 1015.9 |
| 20260505122428 | 0 | 0 | 0.0 | 2.0 | 0.00 | 0.05 | 0.03 | 83 | 1016.1 |
| 20260505121905 | 0 | 0 | 0.0 | 2.0 | 0.00 | 0.05 | 0.03 | 83 | 1016.0 |
| 20260505121342 | 0 | 177 | 0.0 | 2.0 | 0.00 | 0.05 | 0.03 | 82 | 1015.8 |
| 20260505120819 | 0 | 0 | 0.0 | 0.0 | 0.00 | 0.05 | 0.03 | 82 | 1015.6 |
| 20260505120256 | 0 | 0 | 0.0 | 0.0 | 0.00 | 0.05 | 0.03 | 82 | 1015.7 |
| 20260505115733 | 0 | 0 | 0.0 | 0.0 | 0.00 | 0.05 | 0.03 | 83 | 1016.0 |
| 20260505115210 | 0 | 0 | 0.0 | 0.0 | 0.00 | 0.05 | 0.03 | 81 | 1015.8 |
| 20260505114647 | 0 | 0 | 0.0 | 0.0 | 0.00 | 0.05 | 0.03 | 82 | 1015.7 |
| 20260505114124 | 0 | 0 | 0.0 | 0.0 | 0.00 | 0.05 | 0.03 | 82 | 1015.7 |
| 20260505113601 | 0 | 0 | 0.0 | 0.0 | 0.00 | 0.05 | 0.03 | 83 | 1016.0 |
| 20260505113038 | 0 | 0 | 0.0 | 0.0 | 0.00 | 0.05 | 0.03 | 82 | 1016.0 |
| 20260505112514 | 0 | 0 | 0.0 | 0.0 | 0.00 | 0.05 | 0.03 | 82 | 1015.9 |
| 20260505111952 | 0 | 0 | 0.0 | 0.0 | 0.00 | 0.05 | 0.03 | 83 | 1015.9 |
| 20260505111428 | 0 | 0 | 0.0 | 0.0 | 0.00 | 0.05 | 0.03 | 82 | 1015.9 |
| 20260505110905 | 0 | 0 | 0.0 | 0.0 | 0.00 | 0.05 | 0.03 | 82 | 1016.0 |
| 20260505110344 | 0 | 0 | 0.0 | 0.0 | 0.00 | 0.05 | 0.03 | 81 | 1015.7 |
| 20260505102039 | 0 | 0 | 0.0 | 0.0 | 0.00 | 0.06 | 0.03 | 81 | 1015.7 |
| 20260505101515 | 0 | 0 | 0.0 | 0.0 | 0.00 | 0.06 | 0.03 | 80 | 1015.8 |
| 20260505100952 | 0 | 0 | 0.0 | 0.0 | 0.00 | 0.06 | 0.03 | 79 | 1015.8 |
| 20260505100430 | 0 | 0 | 0.0 | 0.0 | 0.00 | 0.06 | 0.03 | 80 | 1015.9 |
| 20260505095907 | 0 | 0 | 0.0 | 0.0 | 0.00 | 0.06 | 0.03 | 80 | 1015.9 |
| 20260505095343 | 0 | 0 | 0.0 | 0.0 | 0.00 | 0.06 | 0.03 | 80 | 1015.8 |
| 20260505094821 | 0 | 0 | 0.0 | 0.0 | 0.00 | 0.06 | 0.03 | 79 | 1015.8 |
| 20260505094257 | 0 | 0 | 0.0 | 0.0 | 0.00 | 0.06 | 0.03 | 79 | 1015.8 |
| 20260505093735 | 0 | 0 | 0.0 | 0.0 | 0.00 | 0.06 | 0.03 | 78 | 1015.6 |
| 20260505093211 | 0 | 0 | 0.0 | 0.0 | 0.00 | 0.06 | 0.03 | 78 | 1015.7 |
| 20260505092649 | 0 | 0 | 0.0 | 0.0 | 0.00 | 0.06 | 0.03 | 78 | 1015.7 |
| 20260505092126 | 0 | 0 | 0.0 | 0.0 | 0.00 | 0.06 | 0.03 | 78 | 1015.7 |
| 20260505091602 | 0 | 0 | 0.0 | 2.0 | 0.00 | 0.06 | 0.03 | 78 | 1015.8 |
| 20260505091040 | 0 | 0 | 0.0 | 2.0 | 0.00 | 0.06 | 0.03 | 79 | 1015.9 |
| 20260505090516 | 0 | 175 | 0.0 | 2.0 | 0.00 | 0.06 | 0.03 | 79 | 1015.7 |
| 20260505085954 | 0 | 0 | 0.0 | 0.0 | 0.00 | 0.06 | 0.03 | 79 | 1015.8 |
| 20260505085430 | 0 | 0 | 0.0 | 0.0 | 0.01 | 0.06 | 0.03 | 79 | 1015.8 |
| 20260505084907 | 0 | 0 | 0.0 | 1.0 | 0.01 | 0.06 | 0.03 | 79 | 1015.6 |
| 20260505084345 | 0 | 0 | 0.0 | 1.0 | 0.01 | 0.06 | 0.03 | 80 | 1015.7 |
| 20260505083821 | 0 | 179 | 0.0 | 1.0 | 0.01 | 0.06 | 0.03 | 79 | 1015.7 |
| 20260505083258 | 0 | 305 | 0.0 | 0.0 | 0.01 | 0.06 | 0.03 | 79 | 1015.6 |
| 20260505082735 | 0 | 0 | 0.0 | 2.0 | 0.01 | 0.06 | 0.03 | 77 | 1015.6 |
| 20260505082212 | 0 | 326 | 0.0 | 2.0 | 0.01 | 0.06 | 0.03 | 79 | 1015.4 |
| 20260505081650 | 0 | 350 | 0.0 | 3.0 | 0.01 | 0.06 | 0.03 | 80 | 1015.3 |
| 20260505081126 | 0 | 19 | 0.0 | 3.0 | 0.01 | 0.06 | 0.03 | 79 | 1015.6 |
| 20260505080603 | 0 | 140 | 0.0 | 3.0 | 0.01 | 0.06 | 0.03 | 77 | 1015.3 |
| 20260505080040 | 0 | 159 | 0.0 | 3.0 | 0.01 | 0.06 | 0.03 | 78 | 1015.4 |